Regional Weather Roundup
Issued by NWS

Home | Current Version | Previous Version | Text Only | Print | Product List | Glossary Off
Versions: 1 2 3 4 5 6 7 8 9 10 11 12 13 14 15 16 17 18 19 20 21 22 23 24 25 26 27 28 29 30 31 32 33 34 35 36 37 38 39 40 41 42 43 44 45 46 47 48 49 50

000
ASUS44 KMEG 021310
RWRTN
TENNESSEE HOURLY STATE WEATHER ROUNDUP
NATIONAL WEATHER SERVICE MEMPHIS TN
800 AM CDT SUN AUG 02 2015

TNZ002-004-019-021-049-052-054-088>092-021400-
WEST TENNESSEE

CITY           SKY/WX    TMP DP  RH WIND       PRES   REMARKS
MEMPHIS INTL   MOSUNNY   81  68  64 E3        29.98R
NWS MEMPHIS      N/A     77 N/A N/A MISG        N/A
JACKSON        SUNNY     76  69  79 CALM      29.99R
DYERSBURG        N/A    N/A N/A N/A MISG        N/A
PARIS          SUNNY     73  64  73 CALM      30.00S
LEXINGTON      SUNNY     73  70  88 CALM      29.99R
$$

TNZ008-025-027-028-033-062-065-066-021400-
NORTH MIDDLE TENNESSEE

CITY           SKY/WX    TMP DP  RH WIND       PRES   REMARKS
NASHVILLE      SUNNY     73  65  75 VRB3      30.01R
CLARKSVILLE    SUNNY     70  66  87 CALM      30.00R
SMYRNA         SUNNY     68  67  96 CALM      30.02R
CROSSVILLE     SUNNY     71  61  70 NE3       30.06R
$$

TNZ061-075-076-078-094-096-097-021400-
SOUTH MIDDLE TENNESSEE

CITY           SKY/WX    TMP DP  RH WIND       PRES   REMARKS
FAYETTEVILLE   SUNNY     72  64  78 NE5       30.00S
TULLAHOMA      SUNNY     72  63  73 CALM      30.02R
WINCHESTER     SUNNY     70  64  83 CALM      30.01R
MCMINNVILLE    SUNNY     68  68 100 NE3       30.02R
COLUMBIA       SUNNY     70  70 100 CALM      29.98S
SHELBYVILLE    SUNNY     72  66  83 CALM      30.01S
$$

TNZ017-018-042-046-047-021400-
NORTHEAST TENNESSEE

CITY           SKY/WX    TMP DP  RH WIND       PRES   REMARKS
TRI CITIES     MOSUNNY   68  63  84 E3        30.06R
ELIZABETHTON   SUNNY     66  61  82 CALM      30.06R
$$

TNZ012-013-036-069-073-074-021400-
CENTRAL EAST TENNESSEE

CITY           SKY/WX    TMP DP  RH WIND       PRES   REMARKS
KNOXVILLE      MOSUNNY   71  63  75 NE7       30.00S
OAK RIDGE      SUNNY     71  63  75 CALM      30.03R
GATLINBURG     SUNNY     70  61  73 CALM      30.01S
MORRISTOWN     SUNNY     72  64  78 E5        30.04S
$$

TNZ083-085-099-021400-
SOUTHEAST TENNESSEE

CITY           SKY/WX    TMP DP  RH WIND       PRES   REMARKS
CHATTANOOGA    MOSUNNY   76  63  64 N7        29.99R
$$

SKY/WX REPORTED AS FAIR MEANS FEW OR NO CLOUDS BELOW
12 THOUSAND FEET.



USA.gov is the U.S. government's official web portal to all federal, state and local government web resources and services.